TimeCET,TemperatureF,Dew PointF,Humidity,Sea Level PressureIn,VisibilityMPH,Wind Direction,Wind SpeedMPH,Gust SpeedMPH,PrecipitationIn,Events,Conditions,WindDirDegrees,DateUTC
12:20 AM,55.4,51.8,88,29.53,5.0,WSW,10.4,-,N/A,,Scattered Clouds,240,2013-02-22 23:20:00
12:50 AM,55.4,51.8,88,29.53,5.0,West,9.2,-,N/A,,Mostly Cloudy,270,2013-02-22 23:50:00
1:20 AM,53.6,50.0,88,29.56,3.7,West,11.5,-,N/A,,Drizzle,270,2013-02-23 00:20:00
1:50 AM,53.6,51.8,94,29.56,3.7,West,8.1,-,N/A,,Drizzle,280,2013-02-23 00:50:00
2:20 AM,53.6,50.0,88,29.56,5.0,West,6.9,-,N/A,,Mostly Cloudy,280,2013-02-23 01:20:00
2:50 AM,53.6,48.2,82,29.56,5.0,WNW,5.8,-,N/A,,Mostly Cloudy,290,2013-02-23 01:50:00
3:20 AM,51.8,48.2,88,29.56,5.0,West,6.9,-,N/A,,Scattered Clouds,260,2013-02-23 02:20:00
3:50 AM,51.8,46.4,82,29.59,5.0,South,4.6,-,N/A,,Scattered Clouds,190,2013-02-23 02:50:00
4:20 AM,51.8,44.6,76,29.59,5.0,SW,5.8,-,N/A,,Unknown,220,2013-02-23 03:20:00
4:50 AM,51.8,44.6,76,29.59,5.0,SW,6.9,-,N/A,,Unknown,230,2013-02-23 03:50:00
5:20 AM,44.6,41.0,87,29.59,5.0,WSW,4.6,-,N/A,,Unknown,240,2013-02-23 04:20:00
5:50 AM,48.2,42.8,82,29.62,-9999.0,Variable,2.3,-,N/A,,Clear,0,2013-02-23 04:50:00
6:20 AM,46.4,42.8,87,29.62,-9999.0,South,2.3,-,N/A,,Clear,180,2013-02-23 05:20:00
6:50 AM,46.4,42.8,87,29.62,-9999.0,South,1.2,-,N/A,,Clear,170,2013-02-23 05:50:00
7:20 AM,48.2,44.6,87,29.62,-9999.0,Variable,2.3,-,N/A,,Clear,0,2013-02-23 06:20:00
7:50 AM,50.0,44.6,82,29.65,-9999.0,Variable,1.2,-,N/A,,Clear,0,2013-02-23 06:50:00
8:20 AM,51.8,46.4,82,29.65,6.2,Variable,2.3,-,N/A,,Mostly Cloudy,0,2013-02-23 07:20:00
9:20 AM,55.4,46.4,72,29.62,6.2,SSE,8.1,-,N/A,,Mostly Cloudy,160,2013-02-23 08:20:00
9:50 AM,55.4,46.4,72,29.65,6.2,South,9.2,-,N/A,,Mostly Cloudy,170,2013-02-23 08:50:00
10:20 AM,57.2,46.4,67,29.65,6.2,South,8.1,-,N/A,,Mostly Cloudy,170,2013-02-23 09:20:00
10:50 AM,57.2,46.4,67,29.65,6.2,South,8.1,-,N/A,,Mostly Cloudy,170,2013-02-23 09:50:00
11:20 AM,57.2,48.2,72,29.65,6.2,South,9.2,-,N/A,Rain,Light Rain,170,2013-02-23 10:20:00
11:50 AM,57.2,48.2,72,29.62,6.2,SSE,10.4,-,N/A,Rain,Light Rain,160,2013-02-23 10:50:00
12:20 PM,59.0,50.0,72,29.59,6.2,SSE,11.5,26.5,N/A,,Mostly Cloudy,160,2013-02-23 11:20:00
12:50 PM,59.0,48.2,67,29.59,6.2,South,6.9,-,N/A,,Light Drizzle,170,2013-02-23 11:50:00
1:20 PM,59.0,48.2,67,29.56,6.2,SSE,5.8,-,N/A,,Mostly Cloudy,160,2013-02-23 12:20:00
1:50 PM,59.0,48.2,67,29.56,6.2,SSW,5.8,-,N/A,Rain,Light Rain,200,2013-02-23 12:50:00
2:20 PM,59.0,48.2,67,29.53,6.2,SSE,11.5,-,N/A,Rain,Light Rain,160,2013-02-23 13:20:00
2:50 PM,59.0,46.4,63,29.53,6.2,SSE,11.5,-,N/A,,Mostly Cloudy,160,2013-02-23 13:50:00
3:20 PM,59.0,46.4,63,29.50,6.2,SSE,11.5,25.3,N/A,,Mostly Cloudy,160,2013-02-23 14:20:00
3:50 PM,60.8,48.2,63,29.50,6.2,South,11.5,-,N/A,,Mostly Cloudy,180,2013-02-23 14:50:00
4:20 PM,60.8,44.6,55,29.50,6.2,South,17.3,31.1,N/A,,Mostly Cloudy,180,2013-02-23 15:20:00
4:50 PM,60.8,44.6,55,29.47,6.2,South,15.0,32.2,N/A,,Mostly Cloudy,170,2013-02-23 15:50:00
5:20 PM,59.0,50.0,72,29.50,3.1,South,18.4,35.7,N/A,Rain,Heavy Rain,180,2013-02-23 16:20:00
5:50 PM,53.6,50.0,88,29.53,4.3,SW,13.8,25.3,N/A,Rain-Thunderstorm,Thunderstorms and Rain,220,2013-02-23 16:50:00
6:20 PM,53.6,51.8,94,29.56,4.3,SSW,11.5,-,N/A,Rain-Thunderstorm,Thunderstorms and Rain,210,2013-02-23 17:20:00
6:50 PM,55.4,51.8,88,29.59,6.2,SSW,12.7,-,N/A,Rain,Light Rain,200,2013-02-23 17:50:00
7:20 PM,55.4,51.8,88,29.59,6.2,SSW,9.2,-,N/A,,Scattered Clouds,200,2013-02-23 18:20:00
7:50 PM,55.4,50.0,82,29.59,6.2,South,9.2,-,N/A,,Scattered Clouds,190,2013-02-23 18:50:00
8:20 PM,55.4,50.0,82,29.59,6.2,South,11.5,-,N/A,,Scattered Clouds,180,2013-02-23 19:20:00
8:50 PM,57.2,50.0,77,29.62,6.2,South,11.5,-,N/A,,Mostly Cloudy,190,2013-02-23 19:50:00
9:20 PM,57.2,51.8,82,29.62,6.2,South,15.0,-,N/A,,Mostly Cloudy,190,2013-02-23 20:20:00
9:50 PM,57.2,51.8,82,29.62,6.2,South,13.8,25.3,N/A,,Mostly Cloudy,190,2013-02-23 20:50:00
10:20 PM,57.2,51.8,82,29.62,6.2,South,13.8,-,N/A,,Mostly Cloudy,180,2013-02-23 21:20:00
10:50 PM,57.2,51.8,82,29.62,6.2,South,12.7,-,N/A,,Mostly Cloudy,180,2013-02-23 21:50:00
11:20 PM,55.4,48.2,77,29.65,6.2,SSW,12.7,25.3,N/A,,Mostly Cloudy,210,2013-02-23 22:20:00
11:50 PM,55.4,48.2,77,29.65,5.0,SSW,11.5,-,N/A,Rain,Light Rain,210,2013-02-23 22:50:00